Location: Hradec Kralove
(50.2170°N, 15.8330°E)
Time: 09:19:27
(UTC+02:00)

Tiangong - Visible Passes

Search period start: 03 October 2023 00:00
Search period end: 13 October 2023 00:00
Orbit: 371 x 384 km, 41.5° (Epoch: 02 October)

Date Brightness Start Highest point End Pass type
(mag) Time Alt. Az. Time Alt. Az. Time Alt. Az.
03 Oct -0.1 20:09:27 10° SW 20:11:31 17° S 20:11:31 17° S visible
04 Oct 0.1 19:07:47 10° SSW 19:09:43 15° S 19:11:39 10° SE visible
04 Oct 0.6 20:43:45 10° SW 20:44:24 13° SW 20:44:24 13° SW visible
05 Oct 0.0 19:41:40 10° SW 19:43:46 17° S 19:45:07 13° SSE visible
06 Oct 0.3 20:16:04 10° SW 20:17:43 14° SSW 20:17:47 14° SSW visible
07 Oct 0.2 19:13:37 10° SW 19:15:38 16° S 19:17:37 10° SSE visible
08 Oct 0.6 19:48:18 10° SW 19:49:19 11° SSW 19:50:20 10° S visible
